sat.trackr.live / text

‹ back to catalog

ONEWEB-0202

NORAD 48224 · 2021-031Q

PAYLOAD ACTIVE UNKNOWN

§ Identity

Operator
Country
UK
Launch date
2021-04-25
Launch site
VOSTO
Launch vehicle
Mass (kg)
RCS (m²)

Purposes: comms

External: N2YO · Heavens-Above · Gunter

§ Orbital elements

Epoch: 2026-09-19T23:19:05.297376Z

Period
109.55 min
Inclination
87.8899°
Eccentricity
0.0001474
Mean motion
13.14504111 rev/d
Perigee alt
1,204.7 km
Apogee alt
1,206.9 km
Semi-major
7,583.9 km
B*
-3.3365e-4
RAAN
270.8049°
Arg perigee
71.2120°
Mean anomaly
288.9169°
Rev number
26,081

§ Raw data

ONEWEB-02021 48224U 21031Q   26262.97158909 -.00000111  00000+0 -33365-3 0  99902 48224  87.8899 270.8049 0001474  71.2120 288.9169 13.14504111260811

JSON: /api/v1/satellites/48224 · /tle

For live sub-satellite position, see the globe view (requires WebGL).

§ Visibility from observer

Set your observer location to see the next 7 days of passes ≥ 10°. The values pass through the URL so the page stays shareable.

No JS? Fill the form by hand. The geolocation button needs JavaScript.